Regional Weather Roundup
Issued by NWS

Home | Current Version | Previous Version | Graphics & Text | Print | Product List | Glossary On
Versions: 1 2 3 4 5 6 7 8 9 10 11 12 13 14 15 16 17 18 19 20 21 22 23 24 25 26 27 28 29 30 31 32 33 34 35 36 37 38 39 40 41 42 43 44 45 46 47 48 49 50
478
ASUS43 KBIS 270402
RWRND

NORTH DAKOTA REGIONAL WEATHER ROUNDUP
NATIONAL WEATHER SERVICE BISMARCK ND
1100 PM CDT WED APR 26 2017

NOTE: "FAIR" INDICATES FEW OR NO CLOUDS BELOW 12,000 FEET WITH NO
SIGNIFICANT WEATHER AND/OR OBSTRUCTIONS TO VISIBILITY.


NDZ001>003-009>011-017-270500-
NORTHWEST NORTH DAKOTA

CITY           SKY/WX    TMP DP  RH WIND       PRES   REMARKS
WILLISTON      FAIR      39  21  48 E10       29.78S
MINOT          FAIR      32  25  75 NE7       29.79R
MINOT AFB      CLEAR     35  26  70 NE8       29.79R
$$

NDZ018>021-031>035-040>046-270500-
SOUTHWEST NORTH DAKOTA

CITY           SKY/WX    TMP DP  RH WIND       PRES   REMARKS
BISMARCK       CLOUDY    37  29  72 E7        29.78S
DICKINSON      FAIR      32  20  61 NE6       29.72S
GARRISON         N/A     33  28  81 E7        29.77S
HETTINGER ARPT CLEAR     30  23  75 NE9       29.73S
$$

NDZ004>008-012>016-024-026-027-054-270500-
NORTHEAST NORTH DAKOTA

CITY           SKY/WX    TMP DP  RH WIND       PRES   REMARKS
GRAND FORKS    LGT SNOW  32  30  92 N16       29.77F FOG
GRND FRKS AFB  MIX PCPN  30  29  95 N17G25    29.77F FOG     WCI  18
DEVILS LAKE    CLOUDY    34  27  75 NE3       29.79S
$$

NDZ022-023-025-028>030-036>039-047>053-270500-
SOUTHEAST NORTH DAKOTA

CITY           SKY/WX    TMP DP  RH WIND       PRES   REMARKS
FARGO          LGT SNOW  29  28  96 N16       29.73F FOG     WCI  17
JAMESTOWN      CLOUDY    31  27  85 NE10      29.75F
$$





USA.gov is the U.S. government's official web portal to all federal, state and local government web resources and services.